GEFSCGP_con_cape1000_222.txt.gz
Probability
0 0 0 0 0 0 0 0 0 0 0 0 3 3 3 3 10 19 26 32 45 55 61 74 81 90 90 100 100 97 97 97 100 100 100 94 94 94 94 90 90 84 77 81
0 0 0 0 0 0 0 0 0 0 0 0 3 3 3 6 6 16 26 39 45 52 74 87 87 90 90 100 100 97 97 97 100 100 100 97 97 97 94 90 90 87 77 74
0 0 0 0 0 0 0 0 0 0 0 0 0 6 6 6 6 6 19 35 42 58 74 90 94 94 90 97 100 97 97 97 100 100 100 97 100 97 94 90 90 84 84 77
0 0 0 0 0 0 0 0 0 0 0 0 0 0 6 13 6 13 29 39 42 48 68 84 94 94 97 97 97 100 100 100 100 100 97 94 94 94 90 90 90 87 81 81
0 0 0 0 0 0 0 0 0 0 0 0 0 0 6 16 19 16 26 32 35 45 61 74 87 87 87 94 94 100 100 100 100 100 97 94 90 87 90 90 90 84 84 81
0 0 0 0 0 0 0 0 0 0 0 0 0 0 6 10 10 16 26 29 29 29 52 77 84 90 87 87 94 97 97 97 97 94 94 90 90 90 90 90 90 87 81 77
0 0 0 0 0 0 0 0 0 0 0 0 0 0 3 6 13 13 23 26 26 29 52 68 84 90 87 87 90 94 97 90 90 90 94 87 84 87 87 87 87 84 81 77
0 0 0 0 0 0 0 0 0 0 0 0 0 0 3 6 10 16 23 26 26 39 52 65 81 81 84 87 94 97 94 90 90 87 84 84 84 87 87 84 87 81 84 81
0 0 0 0 0 0 0 0 0 0 0 0 0 10 6 6 13 16 13 26 35 48 48 61 68 84 84 87 90 87 90 87 87 84 84 84 84 81 81 81 77 74 77 68
0 0 0 0 0 0 0 0 0 0 0 0 0 6 6 10 19 13 19 39 39 45 52 65 68 77 84 87 84 84 87 87 84 84 87 81 81 77 74 68 71 71 68 68
0 0 0 0 0 0 0 0 0 0 0 0 0 0 0 13 10 23 32 39 45 42 52 68 65 71 87 84 81 84 84 87 87 81 77 77 74 68 68 65 58 61 58 68
0 0 0 0 0 0 0 0 0 0 10 3 0 0 0 6 3 26 35 42 45 48 55 71 74 74 81 77 81 81 81 81 77 71 71 71 65 65 68 58 61 58 55 58
0 0 0 0 0 0 0 0 0 0 0 0 0 10 3 6 16 23 39 48 55 68 71 71 74 71 77 84 81 81 77 77 68 68 65 61 61 55 55 65 61 58 61 65
0 0 0 0 0 0 0 0 0 0 0 0 3 6 13 13 16 35 42 58 58 74 77 81 77 77 81 84 81 77 77 74 68 58 58 58 55 55 58 58 61 58 52 55
0 0 0 0 0 0 0 0 0 0 0 0 6 6 16 26 32 39 48 52 65 71 74 84 81 77 81 81 77 77 77 74 68 61 61 58 55 55 52 52 45 52 52 52
0 0 0 0 0 0 0 0 0 0 0 3 6 6 16 26 32 42 48 58 58 68 71 84 84 81 81 77 74 74 74 71 65 58 52 52 45 45 42 39 42 42 42 45
0 0 0 0 0 0 0 0 0 0 0 3 6 13 19 23 35 48 48 55 58 61 71 81 84 81 77 74 74 74 74 61 61 52 48 45 42 42 42 39 35 39 42 39
3 10 0 0 0 0 0 0 0 0 6 6 13 13 23 29 32 39 42 55 61 61 68 81 81 77 71 71 71 74 61 61 58 52 48 45 42 42 42 35 39 42 42 39
0 16 0 0 0 0 0 0 0 3 6 10 16 19 16 26 35 42 45 48 58 61 71 77 74 71 71 71 68 65 61 58 58 48 48 48 42 42 39 39 35 42 35 32
0 16 0 0 0 0 0 0 0 0 10 16 16 23 19 32 35 55 61 61 68 65 77 68 68 68 68 68 68 61 58 55 52 42 42 39 35 35 32 29 32 26 29 29
0 3 0 0 0 0 0 0 0 0 19 26 26 39 45 65 65 74 71 71 77 77 71 71 68 68 68 61 58 55 55 52 45 39 39 35 35 32 26 29 19 23 19 19
0 0 0 0 0 0 13 6 6 61 71 48 35 48 58 65 71 77 71 77 77 71 68 68 68 65 61 55 55 55 45 45 45 42 39 35 29 23 16 19 19 23 16 13
0 0 3 10 16 52 52 61 77 74 71 68 61 55 61 61 71 77 74 74 68 68 68 65 61 58 58 55 55 45 45 42 42 39 32 26 23 26 13 13 13 13 16 10
0 10 16 39 39 42 52 55 65 71 71 68 68 58 58 61 77 71 71 71 68 65 61 61 58 58 58 55 48 48 45 48 39 32 26 23 19 16 13 10 6 6 3 0
16 13 29 42 45 48 45 61 61 71 68 65 55 55 58 74 74 71 68 68 65 58 58 58 55 55 55 48 45 42 42 42 32 26 23 16 16 10 10 6 3 3 3 0
23 32 26 39 65 52 55 58 65 68 65 58 65 55 58 77 71 71 65 55 55 58 58 58 52 48 45 45 39 42 42 35 29 19 19 16 13 6 3 3 0 0 0 0

GEFSCGP_con_cape1000_228.txt.gz
Probability
0 0 0 0 0 0 0 0 0 0 0 0 0 0 0 0 0 3 3 6 6 6 10 13 26 32 52 42 32 39 45 39 32 45 45 42 35 39 39 29 29 32 26 26
0 0 0 0 0 0 0 0 0 0 0 0 3 3 0 3 6 3 3 3 6 10 16 19 29 42 55 48 48 48 48 48 48 48 55 45 42 35 45 48 35 29 26 23
0 0 0 0 0 0 0 0 0 0 3 3 3 3 6 6 3 6 6 6 10 10 16 16 35 39 55 61 55 65 65 68 61 68 65 61 48 48 48 39 39 23 32 23
0 0 0 0 0 0 0 0 0 0 3 3 3 3 3 3 3 3 6 10 10 10 13 10 29 48 52 58 65 58 61 65 61 58 61 61 61 45 42 39 32 32 35 26
0 0 0 0 0 0 0 0 0 0 0 0 0 0 0 0 3 6 10 10 3 16 19 19 32 45 52 61 71 61 61 68 65 58 55 52 48 42 42 29 32 29 32 32
0 0 0 0 0 0 0 0 0 0 0 0 0 0 0 0 3 6 13 10 10 13 16 19 26 35 52 71 77 74 65 65 65 65 61 52 48 52 48 35 29 32 29 32
0 0 0 0 0 0 0 0 0 0 0 0 0 0 0 0 3 6 10 13 19 23 23 19 29 35 61 74 71 74 68 68 65 61 58 55 55 52 48 39 32 35 29 23
0 0 0 0 0 0 0 0 0 0 0 0 0 0 3 3 10 6 6 6 19 26 19 23 35 52 61 71 74 65 65 65 58 65 52 61 52 45 48 35 32 32 29 23
0 0 0 0 0 0 0 0 0 0 0 0 0 0 0 6 6 10 16 26 35 29 29 42 42 48 58 68 65 65 65 65 61 65 55 55 48 48 45 39 29 29 29 29
0 0 0 0 0 0 0 0 0 0 0 0 0 0 0 6 6 13 19 23 29 39 35 39 45 52 48 55 61 61 71 68 61 58 55 55 45 39 39 32 26 26 26 29
0 0 0 0 0 0 0 0 0 0 0 0 0 0 0 3 3 10 16 32 42 42 42 35 32 45 55 58 61 68 68 68 65 58 58 48 48 39 29 26 26 26 26 26
0 0 0 0 0 0 0 0 0 0 0 0 0 0 3 6 6 16 23 39 45 39 39 32 48 52 68 68 61 65 68 68 61 58 48 48 39 35 35 32 32 32 26 29
0 0 0 0 0 0 0 0 0 0 0 0 0 3 10 6 6 23 35 39 48 52 45 48 52 61 71 68 65 65 68 61 58 52 45 39 39 39 39 32 32 29 26 29
0 0 0 0 0 0 0 0 0 0 0 0 0 3 16 10 13 26 32 42 48 45 45 45 48 61 65 65 61 58 61 58 52 48 42 45 42 39 35 35 26 26 26 29
0 0 0 0 0 0 0 0 0 0 0 0 0 3 13 6 16 26 35 42 48 48 55 52 55 55 58 55 58 55 52 55 45 45 45 45 42 39 35 32 26 26 26 23
0 0 0 0 0 0 0 0 0 0 0 0 3 3 3 6 19 29 32 45 52 55 55 58 52 52 55 55 58 52 52 48 48 42 42 39 35 35 35 29 26 26 23 19
0 0 0 0 0 0 0 0 0 3 6 3 3 6 3 16 23 42 42 48 55 58 58 58 61 55 52 58 52 52 42 42 42 39 39 35 35 35 29 26 26 23 19 16
0 0 0 0 0 0 0 0 3 6 6 3 3 10 16 26 32 39 45 48 45 48 58 61 55 61 61 55 48 42 39 39 42 39 35 32 32 29 23 23 23 23 13 13
0 0 0 0 0 0 0 3 6 3 3 3 6 16 23 23 32 39 55 52 55 58 58 55 52 61 58 52 48 42 39 39 35 32 32 29 26 23 19 19 19 10 10 6
0 0 0 0 0 0 0 3 10 3 3 10 13 16 19 26 32 39 42 61 61 61 58 65 58 55 55 48 48 45 39 32 29 26 32 29 26 19 19 16 16 10 6 6
0 0 0 0 0 0 0 10 3 0 3 13 16 16 19 29 42 45 55 55 65 65 65 61 55 52 52 52 48 39 32 26 23 23 26 29 23 16 16 16 10 10 6 6
0 0 0 0 0 0 3 29 6 6 13 29 29 32 32 45 58 55 61 58 61 58 61 58 52 55 52 45 42 32 26 23 23 23 23 13 10 10 13 3 6 6 6 6
0 0 0 0 0 0 19 26 26 29 29 29 35 35 35 42 45 58 55 61 61 61 55 52 48 45 45 42 39 26 19 19 19 19 13 10 3 0 0 3 3 0 0 3
0 0 0 6 16 16 29 32 23 29 32 39 39 48 48 48 48 52 61 55 61 58 52 45 48 35 32 29 29 19 16 16 16 16 10 3 0 0 0 0 0 0 0 0
3 0 6 13 13 26 23 23 26 29 29 32 45 52 48 48 52 48 55 52 55 48 45 48 35 26 26 29 26 19 16 16 16 13 13 3 0 0 0 0 0 0 0 0
3 3 6 13 16 19 19 26 23 29 29 32 39 52 45 48 48 45 48 52 48 39 42 35 32 26 26 26 26 19 16 16 13 13 6 0 0 0 0 0 0 0 0 0

GEFSCGP_con_cape1000_234.txt.gz
Probability
0 0 0 0 0 0 0 0 0 0 0 0 0 0 3 0 0 0 0 0 0 3 0 3 6 3 3 6 3 6 6 6 6 6 6 10 13 6 10 13 10 10 10 3
0 0 0 0 0 0 0 0 0 0 0 0 0 0 0 0 0 0 0 0 3 6 3 3 6 10 3 6 3 10 6 6 3 6 10 10 13 10 6 10 10 10 10 10
0 0 0 0 0 0 0 0 0 0 3 0 0 0 3 3 3 0 0 3 3 6 6 6 10 6 6 10 6 10 6 6 3 6 16 19 23 23 19 19 13 10 13 16
0 0 0 0 0 0 0 0 0 0 0 0 0 0 0 3 3 3 3 3 6 6 10 0 3 6 10 6 6 10 6 3 3 6 16 19 26 26 19 13 10 6 10 10
0 0 0 0 0 0 0 0 0 0 0 0 0 0 0 3 3 3 6 3 6 6 3 0 0 0 10 6 10 10 10 10 10 13 16 16 23 16 16 10 13 6 6 3
0 0 0 0 0 0 0 0 0 0 0 0 0 0 0 3 3 3 10 6 6 6 6 10 6 13 10 16 19 16 10 10 13 19 19 19 19 23 19 16 16 10 6 10
0 0 0 0 0 0 0 0 0 0 0 0 0 0 0 0 3 3 10 6 6 10 10 10 10 10 10 13 19 19 13 13 13 16 26 26 23 26 23 16 19 13 3 10
0 0 0 0 0 0 0 0 0 0 0 0 0 0 0 0 3 10 10 10 13 13 10 10 16 6 10 10 13 16 23 23 23 26 32 35 26 32 26 23 16 16 16 13
0 0 0 0 0 0 0 0 0 0 0 0 0 0 0 3 3 10 10 10 10 10 16 16 13 13 10 10 16 23 23 29 26 32 39 32 32 29 26 19 16 16 16 13
0 0 0 0 0 0 0 0 0 0 0 0 0 0 0 3 3 6 10 10 13 13 23 23 16 10 13 13 19 19 23 32 32 32 32 32 29 23 26 23 16 13 13 13
0 0 0 0 0 0 0 0 0 0 0 0 0 0 0 3 3 6 10 10 19 19 23 26 16 10 13 16 19 29 32 29 35 29 26 29 26 29 23 19 19 16 13 16
0 0 0 0 0 0 0 0 0 0 0 0 0 0 3 0 3 6 10 23 19 23 26 26 23 16 16 19 23 32 39 35 35 29 26 26 26 26 23 23 23 23 23 23
0 0 0 0 0 0 0 0 0 0 0 0 0 0 3 3 6 6 10 19 19 26 29 29 29 23 19 23 32 52 48 42 35 32 26 26 26 26 19 19 23 23 16 13
0 0 0 0 0 0 0 0 0 0 0 0 0 0 3 6 6 10 6 16 23 26 29 29 26 26 32 39 45 48 45 39 35 32 26 26 23 23 19 19 19 16 13 13
0 0 0 0 0 0 0 0 0 0 0 0 0 0 3 3 10 6 10 23 32 32 42 42 39 35 39 39 39 42 42 35 35 35 26 26 26 23 19 19 13 16 16 16
0 0 0 0 0 0 0 0 0 0 0 0 0 0 0 0 0 10 16 35 42 32 39 45 45 39 42 39 35 39 42 39 39 29 32 29 26 26 23 16 16 16 16 16
0 0 0 0 0 0 0 0 0 0 0 0 0 0 0 0 6 19 16 32 35 32 39 45 48 45 39 39 32 26 32 35 39 35 32 29 29 23 23 23 19 19 16 13
0 0 0 0 0 0 0 0 0 0 0 0 0 0 3 3 6 19 26 23 29 35 48 52 48 48 39 35 26 23 29 29 39 32 35 32 26 23 23 16 16 16 10 10
0 0 0 0 0 0 0 0 0 0 0 0 0 3 3 6 10 16 19 19 35 35 39 45 52 42 39 29 26 26 29 29 32 29 29 26 19 19 19 16 16 10 10 6
0 0 0 0 0 0 0 0 0 0 0 0 0 0 13 16 10 19 23 32 32 42 48 52 45 42 29 26 29 29 29 32 29 26 26 19 19 19 16 16 10 6 6 6
0 0 0 0 0 0 0 0 0 0 0 0 0 6 13 6 0 13 23 35 35 42 45 52 48 35 32 29 23 23 23 29 23 23 19 19 16 16 10 13 10 6 6 6
0 0 0 0 0 0 0 6 0 0 0 3 10 10 16 19 23 29 32 42 45 52 48 52 42 35 23 19 26 26 23 16 23 19 19 16 13 10 6 3 3 3 3 6
0 0 0 0 0 0 0 0 3 3 10 13 16 16 26 29 35 35 39 45 52 55 52 48 35 32 23 19 26 29 19 13 16 16 10 10 10 0 0 0 0 0 0 0
0 0 0 0 0 0 3 3 6 6 13 19 16 23 23 29 32 35 35 45 45 45 45 45 42 42 26 16 16 16 16 16 13 10 10 3 0 0 0 0 0 0 0 0
0 0 0 3 6 6 10 13 16 19 16 23 16 26 29 39 32 35 39 45 52 45 42 42 45 39 29 13 13 13 16 16 13 6 3 3 0 0 0 0 0 0 0 0
0 0 0 0 0 0 3 10 13 16 13 16 26 32 26 29 32 32 39 42 39 45 39 32 32 29 19 13 16 13 13 13 13 10 6 0 0 0 0 0 0 0 0 0

GEFSCGP_con_cape1000_240.txt.gz
Probability
0 0 0 0 0 0 0 0 0 0 3 3 0 3 3 6 3 3 0 10 13 23 19 29 32 42 61 71 71 87 87 87 87 87 84 77 77 68 58 55 55 61 55 52
0 0 0 0 0 0 0 0 0 0 0 0 0 3 3 6 10 10 10 13 13 19 32 42 52 55 58 74 81 84 84 87 84 84 81 84 77 61 55 61 65 61 58 61
0 0 0 0 0 0 0 0 0 0 0 0 0 0 3 13 10 10 10 13 13 16 23 39 48 52 52 71 81 81 84 81 81 77 77 77 81 74 65 65 68 68 68 65
0 0 0 0 0 0 0 0 0 0 0 0 0 0 3 16 13 10 16 16 16 16 23 35 52 52 65 68 74 81 87 84 81 81 77 74 77 61 68 71 68 68 65 61
0 0 0 0 0 0 0 0 0 0 0 0 0 0 0 16 19 19 16 23 16 23 29 42 42 52 68 65 71 77 77 81 81 77 77 74 74 71 71 68 71 71 61 68
0 0 0 0 0 0 0 0 0 0 0 0 0 0 0 3 13 16 19 19 29 29 35 39 45 52 61 61 65 65 77 77 77 77 74 74 77 77 74 74 71 71 65 65
0 0 0 0 0 0 0 0 0 0 0 0 0 0 0 0 3 16 23 23 32 35 45 45 55 52 58 58 65 71 74 74 74 74 71 71 71 74 68 68 68 68 58 58
0 0 0 0 0 0 0 0 0 0 0 0 0 0 0 3 10 19 19 29 32 39 55 48 48 58 55 55 68 68 74 74 71 71 71 71 71 71 61 65 65 65 55 58
0 0 0 0 0 0 0 0 0 0 0 0 0 0 0 3 13 19 19 26 29 42 48 52 55 58 55 55 65 65 71 71 71 71 71 71 71 71 65 61 61 55 58 52
0 0 0 0 0 0 0 0 0 0 0 0 0 0 0 13 13 23 23 26 35 48 42 48 52 55 52 61 65 65 68 71 71 71 71 71 71 68 68 65 61 61 55 55
0 0 0 0 0 0 0 0 0 0 0 0 0 0 0 0 13 16 26 23 39 45 45 42 48 58 55 65 68 71 68 68 71 71 71 71 68 65 61 61 55 55 52 48
0 0 0 0 0 0 0 0 0 0 0 0 0 0 0 3 10 16 29 32 42 45 45 39 48 55 58 61 65 68 71 71 68 71 71 68 65 61 55 55 55 52 48 45
0 0 0 0 0 0 0 0 0 0 0 0 0 0 0 10 16 19 32 42 52 52 48 48 55 58 65 65 68 68 71 71 68 74 71 68 68 58 58 52 48 42 39 35
0 0 0 0 0 0 0 0 0 0 0 0 0 0 3 13 23 26 32 52 52 55 58 61 68 65 74 71 71 71 71 71 68 68 68 68 58 61 52 52 45 42 39 32
0 0 0 0 0 0 0 0 0 0 0 0 0 0 3 10 29 32 32 48 52 58 58 61 71 71 74 71 71 71 68 68 68 68 68 65 55 52 52 45 45 42 39 32
0 0 0 0 0 0 0 0 0 0 0 0 0 0 6 19 26 32 39 45 55 55 65 65 68 74 71 71 71 68 65 65 65 68 68 58 55 52 45 45 42 42 42 32
0 0 0 0 0 0 0 0 0 0 0 0 0 3 13 26 32 35 45 52 61 61 68 61 61 71 74 71 71 68 65 61 61 61 61 61 48 42 42 42 42 42 39 32
0 0 0 0 0 0 0 0 0 0 0 0 3 3 13 16 32 35 42 55 65 65 61 61 61 68 68 71 71 65 65 61 61 58 61 58 45 39 39 39 42 35 39 32
3 0 0 0 0 0 0 0 0 0 0 0 0 6 16 23 26 35 48 52 61 65 65 65 61 61 65 71 71 65 61 61 61 58 58 55 45 39 39 39 39 32 35 29
0 3 0 0 0 0 0 0 0 0 0 0 0 16 23 26 23 29 45 58 61 65 68 61 65 61 68 71 71 68 61 61 58 55 58 52 48 39 39 39 32 29 29 23
0 0 0 0 0 0 0 3 6 0 0 16 16 19 32 35 39 42 48 61 65 68 71 71 71 68 71 68 68 65 65 61 61 52 55 48 42 39 35 35 32 32 23 19
0 0 0 0 0 0 3 3 6 10 19 26 26 26 29 32 52 61 61 61 61 61 65 65 68 68 65 68 68 58 58 58 52 52 48 48 42 32 29 29 32 26 19 19
0 0 0 0 3 6 3 16 19 19 23 26 26 35 45 39 52 61 61 65 55 65 71 65 61 61 61 61 55 58 58 55 55 48 45 45 39 29 29 26 26 26 23 13
0 3 3 3 3 6 16 23 26 29 32 42 42 48 39 45 52 61 61 61 58 52 58 61 58 58 61 61 61 58 48 48 48 45 39 42 35 32 29 23 16 16 13 13
0 3 3 6 3 10 26 26 29 32 42 42 48 45 45 48 52 61 58 55 52 55 58 55 65 55 55 58 55 55 42 48 42 39 39 39 26 23 16 16 10 10 10 6
3 3 3 3 26 16 26 32 35 35 39 45 45 45 48 45 48 52 61 45 45 45 45 52 48 52 55 48 48 42 42 42 42 39 26 26 26 29 16 6 3 0 0 0